Location: New Frontier Mobile Home Park
(32.8448°N, 116.9675°W)
Time: 19:51:33
(UTC+00:00)

Meteor 1-11 Rocket - Pass Details

Date: 14 July 2020
Orbit: 832 x 915 km, 81.2° (Epoch: 13 August)

Event Time Altitude Azimuth Distance (km) Brightness Sun altitude
Exits shadow 10:36:47 36° 277° (W) 1,295 4.4 -23.1°
Maximum altitude 10:37:02 36° 283° (WNW) 1,291 4.4 -23.1°
Drops below altitude 10° 10:42:06 10° 349° (N) 2,443 6.6 -22.4°
Sets 10:44:42 0° 358° (N) 3,382 7.5 -22.0°
